Regional Weather Roundup
Issued by NWS Jackson, KY

Home | Current Version | Previous Version | Text Only | Print | Product List | Glossary On
Versions: 1 2 3 4 5 6 7 8 9 10 11 12 13 14 15 16 17 18 19 20 21 22 23 24 25 26 27 28 29 30 31 32 33 34 35 36 37 38 39 40 41 42 43 44 45 46 47 48 49 50
000
ASUS43 KJKL 281619
RWRJKL

EAST KENTUCKY HOURLY WEATHER ROUNDUP
NATIONAL WEATHER SERVICE JACKSON KY
1200 PM EDT MON JUL 28 2014

NOTE: "FAIR" INDICATES FEW OR NO CLOUDS BELOW 12,000 FEET WITH
NO SIGNIFICANT WEATHER AND/OR OBSTRUCTIONS TO VISIBILITY.

* THESE REPORTS ARE NOT UNDER NWS QUALITY CONTROL AND MAY NOT
  REPORT WEATHER SUCH AS PRECIPITATION AND FOG.

KYZ079-080-083-085-087-088-110-112-115-119-120-281700
...EASTERN KENTUCKY...

CITY           SKY/WX    TMP DP  RH WIND       PRES   REMARKS
JACKSON        CLOUDY    68  60  75 VRB3      29.97R
LONDON         PTSUNNY   73  59  61 W14       29.99R
SOMERSET*      PTSUNNY   72  59  64 NW9G16    30.00S
MONTICELLO*    PTSUNNY   73  63  68 NW10      30.02R
MIDDLESBORO*   PTSUNNY   76  59  56 NW5       29.98S
HARLAN APT*    CLOUDY    72  57  60 MISG      29.98R
HAZARD APT*    CLOUDY    72  61  68 W7        29.97R
BLACK MTN*       N/A     61  55  82 S1          N/A
PIKEVILLE APT* CLOUDY    68  61  77 W5        29.95R
BIG SANDY*     CLOUDY    71  61  71 NW6G16    29.94S
MOREHEAD APT*  CLOUDY    68  59  73 NW8       29.98R
ASHLAND*       CLOUDY    70  57  64 NW6       29.91R
$$

KYZ035-036-041-042-044-050-067-078-099-281700
...CENTRAL KENTUCKY...

CITY           SKY/WX    TMP DP  RH WIND       PRES   REMARKS
MT STERLING*   CLOUDY    68  61  77 N7        29.99R
FLEMING/MASON* CLOUDY    66  59  77 NW9       29.97R
DANVILLE*      CLOUDY    72  59  64 NW12G18   30.01R
RICHMOND*      CLOUDY    70  59  68 W9        29.98R
LEXINGTON      CLOUDY    72  60  66 NW15      29.99R
FRANKFORT      CLOUDY    68  59  73 NW7       29.99R
$$

KYZ091>093-OHZ055-061-077-WVZ005-015-034-035-042-281700
...SOUTHERN OHIO/WEST VIRGINIA...

CITY           SKY/WX    TMP DP  RH WIND       PRES   REMARKS
COVINGTON      CLOUDY    68  57  68 NW12      29.97R
COLUMBUS       CLOUDY    71  59  65 NW16      29.88R
DAYTON         PTSUNNY   72  59  63 NW15      29.94S
WILMINGTON     CLOUDY    67  58  72 NW12      29.94R
HUNTINGTON     CLOUDY    67  58  72 NW10      29.92R
CHARLESTON     CLOUDY    69  61  75 NW9G20    29.90R
PINEVILLE*     CLOUDY    71  64  77 MISG      29.98R
BECKLEY        CLOUDY    66  57  72 W13       29.93R
BLUEFIELD      PTSUNNY   69  56  62 W17G26    29.95R
$$

VAZ002-007-008-TNZ017-027-036-066-071-281700
...SOUTHWEST VIRGINIA/EAST TENNESSEE...

CITY           SKY/WX    TMP DP  RH WIND       PRES   REMARKS
WISE*          CLOUDY    68  54  60 W10G18    30.02R
JONESVILLE*    SUNNY     75  59  57 W8        29.99S
ABINGDON*      MOSUNNY   73  58  61 NW9G18    29.97R
BRISTOL        MOSUNNY   76  59  55 W13G23    29.96R
KNOXVILLE      MOSUNNY   77  61  57 NW8       29.98R
OAK RIDGE      PTSUNNY   79  60  52 MISG      29.99R
CROSSVILLE     LGT RAIN  76  58  53 W15G21    30.05R
NASHVILLE      MOSUNNY   78  61  55 W8        30.03R
$$

...KEY TO REMARKS...
VSB - VISIBILITY IN MILES
WCI - WIND CHILL INDEX
HX  - HEAT INDEX

$$


USA.gov is the U.S. government's official web portal to all federal, state and local government web resources and services.